Regional Weather Roundup
Issued by NWS

Home | Current Version | Previous Version | Text Only | Print | Product List | Glossary On
Versions: 1 2 3 4 5 6 7 8 9 10 11 12 13 14 15 16 17 18 19 20 21 22 23 24 25 26 27 28 29 30 31 32 33 34 35 36 37 38 39 40 41 42 43 44 45 46 47 48 49 50
000
ASUS43 KDTX 151501
RWRMI
MICHIGAN HOURLY REGIONAL WEATHER ROUNDUP
NATIONAL WEATHER SERVICE DETROIT/PONTIAC MI
1000 AM EST FRI DEC 15 2017

NOTE: "FAIR" INDICATES FEW OR NO CLOUDS BELOW 12,000 FEET WITH NO
SIGNIFICANT WEATHER AND/OR OBSTRUCTION TO VISIBILITY.

MIZ047>049-052>055-059>063-066>070-074>076-081>083-151600-
SOUTHEAST LOWER MICHIGAN

CITY           SKY/WX    TMP DP  RH WIND       PRES   REMARKS
ADRIAN         CLOUDY    22  16  78 SW9       29.89S WCI  12
ANN ARBOR      CLOUDY    20  14  77 S8        29.86F WCI  10
BAD AXE        LGT SNOW  19  16  88 S12       29.80F WCI   6
CARO           LGT SNOW  20  17  89 S9        29.79F WCI   9
DETROIT CITY   CLOUDY    23  13  65 SW13      29.88F WCI  11
DETROIT        LGT SNOW  25  14  63 SW10      29.89F WCI  15
FLINT          CLOUDY    21  12  68 S12       29.82F WCI   9
GROSSE ILE     FLURRIES  24  14  66 SW13      29.89F WCI  12
HILLSDALE      LGT SNOW  23  16  74 SW15      29.84S WCI  10
HOWELL         LGT SNOW  21  15  78 S10       29.82S WCI   9

CITY           SKY/WX    TMP DP  RH WIND       PRES   REMARKS
JACKSON        LGT SNOW  22  15  75 S14       29.83F WCI   9
LAMBERTVILLE   CLOUDY    24  15  68 SW8       29.90F WCI  15
LANSING        LGT SNOW  20  17  88 SW13      29.81F FOG     WCI   7
LAPEER         CLOUDY    21  13  72 SW10G16   29.82F WCI  10
MASON          LGT SNOW  22  15  76 S7        29.82F WCI  13
MONROE         CLOUDY    24  13  62 SW9       29.89F WCI  14
PONTIAC        FLURRIES  20  14  77 S6        29.81F WCI  12
PORT HOPE        N/A     20  16  84 VRB7      29.78F WCI  11
PORT HURON     CLOUDY    21  12  68 S10       29.86F WCI  10
TRI CITIES     SNOW      20  19  96 S12       29.78F VSB 1/2 WCI   8
MIDLAND        LGT SNOW  22  19  88 SW8       29.78S VSB 3/4 WCI  12
TROY           FLURRIES  22  14  70 S10       29.87F WCI  11
SAGINAW HB     LGT SNOW  21  19  93 S14         N/A  VSB 1   WCI   8
$$
MIZ043>046-050>051-056>058-064>065-071>073-077>080-151600-
SOUTHWEST LOWER MICHIGAN

CITY           SKY/WX    TMP DP  RH WIND       PRES   REMARKS
BATTLE CREEK   LGT SNOW  21  16  81 SW15      29.83S WCI   8
BENTON HARBOR  CLOUDY    27  18  69 W22G33    29.88R HAZE    WCI  13
BIG RAPIDS     LGT SNOW  22  17  82 W12       29.75S WCI  11
COLDWATER      LGT SNOW  22  18  81 SW13G18   29.86S WCI  10
HOLLAND        SNOW      26  23  88 W12G22    29.82S VSB 1/4 WCI  16
GRAND RAPIDS   LGT SNOW  22  20  92 S10       29.80S VSB 3/4 WCI  11
IONIA          LGT SNOW  22  19  89 SW13      29.78S VSB 3/4 WCI  10
KALAMAZOO      LGT SNOW  22  17  81 SW12      29.84S WCI  10
LUDINGTON      FLURRIES  23  14  68 NW10G18   29.79R WCI  13
MARSHALL       FLURRIES  21  16  81 SW9G16    29.84S WCI  10
MOUNT PLEASANT LGT SNOW  23  19  83 SW6       29.76S WCI  15
MUSKEGON       LGT SNOW  26  19  74 W15       29.82R VSB 1   WCI  14
SOUTH HAVEN    LGT SNOW  28  22  76 W20G25    29.84S WCI  15
$$
MIZ016>042-151600-
NORTHERN LOWER MICHIGAN

CITY           SKY/WX    TMP DP  RH WIND       PRES   REMARKS
ALPENA         LGT SNOW  20  18  92 S10       29.73F FOG     WCI   9
BEAVER ISLAND  CLOUDY    23  19  83 W6        29.70S WCI  16
BELLAIRE       LGT SNOW  24  22  94 SW5       29.72S WCI  18
CADILLAC       LGT SNOW  21  18  90 W6        29.69S VSB 3/4 WCI  13
CHARLEVOIX     LGT SNOW  25  20  83 W14G20    29.72S WCI  13
FRANKFORT      LGT SNOW  25  17  71 W15       29.75S WCI  12
GAYLORD        LGT SNOW  19  14  81 SW10      29.66F WCI   7
GRAYLING       LGT SNOW  19  15  84 SW6       29.70F WCI  11
HARBOR SPRINGS LGT SNOW  22  20  92 W3        29.69R
HOUGHTON LAKE  LGT SNOW  20  16  84 SW8       29.71F FOG     WCI  10
MANISTEE       FLURRIES  23  16  74 W17       29.77R WCI   9
OSCODA         LGT SNOW  22  19  85 S9        29.75F VSB 3/4 WCI  12
PELLSTON       LGT SNOW  20  18  92 N8        29.69S FOG     WCI  10
ROGERS CITY    CLOUDY    21  17  84 S10       29.71F WCI   9
TRAVERSE CITY  LGT SNOW  23  19  85 SW6       29.73S VSB 1   WCI  16
$$
MIZ007>008-015-151600-
EASTERN UPPER MICHIGAN

CITY           SKY/WX    TMP DP  RH WIND       PRES   REMARKS
KINROSS        CLOUDY    16  14  92 S5        29.67F WCI   9
MACKINAC ISLAN CLOUDY    23  16  75 NW7       29.68F WCI  15
NEWBERRY       FLURRIES  14  14  97 SW7       29.65F WCI   4
S. S. MARIE    CLOUDY    17  13  84 CALM      29.68F
MUNISING         N/A     22  20  92 W10G17    29.69S WCI  11
$$
MIZ004>006-011>014-085-151600-
CENTRAL UPPER MICHIGAN

CITY           SKY/WX    TMP DP  RH WIND       PRES   REMARKS
MANISTIQUE     CLOUDY    15  10  81 W12G17    29.70S WCI   2
ESCANABA       PTSUNNY   15  10  80 W13       29.74F WCI   1
MENOMINEE      CLOUDY    15   9  76 VRB7      29.81R WCI   5
SAWYER-GWINN   CLOUDY    16  12  86 W7        29.70R WCI   6
$$
MIZ001>003-009>011-084-151600-
WESTERN UPPER MICHIGAN

CITY           SKY/WX    TMP DP  RH WIND       PRES   REMARKS
IRON MOUNTAIN  CLOUDY   N/A N/A N/A MISG      29.74S
HOUGHTON       FLURRIES  17   9  70 NW13      29.72S WCI   4
COPPER HARBOR    N/A     21  13  71 NE17G23   29.73R WCI   7
IRONWOOD       LGT SNOW  13  10  88 W13       29.79S FOG     WCI  -2
$$

ABBREVIATIONS USED IN REMARKS
   TC - TEMPERATURE IN CELSIUS
  WCI - WIND CHILL INDEX
   HX - HEAT INDEX
  VSB - VISIBILITY





USA.gov is the U.S. government's official web portal to all federal, state and local government web resources and services.